Flint, MI

9:14 AM EDT on October 20, 2017 (GMT -0400)
Bishop International

Weather History for KFNT - March, 2012

Change the Weather History Date:

Monday, March 19, 2012

  Actual Average Record
Temperature  
Mean Temperature 65 °F 35 °F  
Max Temperature 80 °F 45 °F 80 °F (2012)
Min Temperature 49 °F 26 °F -1 °F (1923)
Degree Days  
Heating Degree Days 0 30  
Month to date heating degree days 322 631  
Since 1 July heating degree days 4587 5719  
Cooling Degree Days 0 0  
Month to date cooling degree days 6 0  
Year to date cooling degree days 6 0  
Growing Degree Days 14 (Base 50)    
Moisture  
Dew Point 54 °F    
Average Humidity 72    
Maximum Humidity 96    
Minimum Humidity 48    
Precipitation  
Precipitation 0.00 in 0.06 in 2.33 in (1948)
Month to date precipitation 1.30 1.07  
Year to date precipitation 5.08 4.18  
Snow  
Snow 0.00 in 0.20 in 1.70 in (1957)
Month to date snowfall 0.8 4.7  
Since 1 July snowfall 33.1 43.3  
Snow Depth 0.00 in    
Sea Level Pressure  
Sea Level Pressure 30.07 in    
Wind  
Wind Speed 8 mph (SSE)    
Max Wind Speed 17 mph    
Max Gust Speed 21 mph    
Visibility 7 miles    
Events Fog    
T = Trace of Precipitation, MM = Missing Value Source: NWS Daily Summary

Daily Weather History Graph

Daily Weather History Graph

Search for Another Location

Airport or City:

Trip Planner

Search our weather history database for the weather conditions in past years. The results will help you decide how hot, cold, wet, or windy it might be!

Date:

Astronomy

Mar. 19, 2012 Rise Set
Actual Time 7:39 AM EDT 7:46 PM EDT
Civil Twilight 7:10 AM EDT 8:14 PM EDT
Nautical Twilight 6:37 AM EDT 8:48 PM EDT
Astronomical Twilight 6:03 AM EDT 9:22 PM EDT
Moon 5:54 AM EDT (3/19) 5:10 PM EDT (3/19)
Length of Visible Light 13h 04m
Length of Day
12h 07m
Waning Crescent, 8% of the Moon is Illuminated
Mar 19
Waning Crescent
Mar 22
New
Mar 30
First Quarter
Apr 6
Full
Apr 13
Last Quarter

Hourly Weather History & Observations

Time (EDT) Temp. Dew Point Humidity Pressure Visibility Wind Dir Wind Speed Gust Speed Precip Events Conditions
12:53 AM 60.8 °F 53.6 °F 77% 30.05 in 10.0 mi South 4.6 mph - N/A   Clear
1:53 AM 55.0 °F 52.0 °F 89% 30.07 in 10.0 mi SSW 3.5 mph - N/A   Clear
2:53 AM 54.0 °F 52.0 °F 93% 30.07 in 6.0 mi South 4.6 mph - N/A   Clear
3:20 AM 51.8 °F 48.2 °F 88% 30.07 in 1.5 mi SSE 4.6 mph - N/A   Clear
3:36 AM 50.0 °F 48.2 °F 94% 30.07 in 3.0 mi ESE 3.5 mph - N/A   Clear
3:53 AM 52.0 °F 48.9 °F 89% 30.07 in 2.5 mi Calm Calm - N/A   Clear
4:16 AM 51.8 °F 50.0 °F 94% 30.07 in 0.8 mi Calm Calm - N/A   Clear
4:26 AM 51.8 °F 50.0 °F 94% 30.07 in 0.2 mi Calm Calm - N/A Fog Fog
4:53 AM 51.1 °F 48.9 °F 92% 30.07 in 0.2 mi Calm Calm - N/A Fog Fog
5:04 AM 53.6 °F 51.8 °F 94% 30.08 in 0.5 mi South 4.6 mph - N/A Fog Fog
5:14 AM 55.4 °F 53.6 °F 94% 30.08 in 2.5 mi South 3.5 mph - N/A   Scattered Clouds
5:21 AM 55.4 °F 53.6 °F 94% 30.08 in 5.0 mi South 4.6 mph - N/A   Scattered Clouds
5:35 AM 53.6 °F 51.8 °F 94% 30.09 in 2.5 mi Calm Calm - N/A   Scattered Clouds
5:53 AM 52.0 °F 50.0 °F 93% 30.09 in 3.0 mi SSE 3.5 mph - N/A   Partly Cloudy
6:48 AM 51.8 °F 50.0 °F 94% 30.09 in 5.0 mi SE 3.5 mph - N/A   Partly Cloudy
6:53 AM 52.0 °F 50.0 °F 93% 30.09 in 5.0 mi SE 3.5 mph - N/A   Partly Cloudy
7:53 AM 53.1 °F 51.1 °F 93% 30.10 in 5.0 mi SE 4.6 mph - N/A   Partly Cloudy
8:53 AM 57.9 °F 55.9 °F 93% 30.11 in 5.0 mi SSE 5.8 mph - N/A   Partly Cloudy
9:53 AM 63.0 °F 57.9 °F 84% 30.11 in 10.0 mi SSE 6.9 mph - N/A   Scattered Clouds
10:53 AM 69.8 °F 57.2 °F 64% 30.10 in 10.0 mi SSE 10.4 mph - N/A   Clear
11:53 AM 73.0 °F 57.0 °F 57% 30.09 in 10.0 mi South 10.4 mph - N/A   Clear
12:53 PM 75.9 °F 57.9 °F 54% 30.08 in 10.0 mi SSE 12.7 mph - N/A   Clear
1:53 PM 78.1 °F 57.9 °F 50% 30.08 in 10.0 mi South 11.5 mph - N/A   Clear
2:53 PM 79.0 °F 57.9 °F 48% 30.06 in 10.0 mi South 15.0 mph - N/A   Partly Cloudy
3:53 PM 79.0 °F 57.9 °F 48% 30.04 in 10.0 mi SSW 6.9 mph - N/A   Partly Cloudy
4:53 PM 79.0 °F 57.0 °F 47% 30.04 in 10.0 mi South 11.5 mph - N/A   Partly Cloudy
5:53 PM 77.0 °F 57.9 °F 52% 30.03 in 10.0 mi South 10.4 mph - N/A   Clear
6:53 PM 75.0 °F 57.9 °F 55% 30.03 in 10.0 mi SSE 13.8 mph - N/A   Clear
7:53 PM 72.0 °F 57.9 °F 61% 30.04 in 10.0 mi SSE 11.5 mph - N/A   Clear
8:53 PM 69.1 °F 57.0 °F 65% 30.04 in 10.0 mi SSE 10.4 mph - N/A   Clear
9:53 PM 66.9 °F 55.9 °F 68% 30.05 in 10.0 mi SE 11.5 mph - N/A   Clear
10:53 PM 66.0 °F 55.9 °F 70% 30.04 in 10.0 mi SSE 13.8 mph - N/A   Clear
11:53 PM 64.0 °F 55.0 °F 73% 30.07 in 10.0 mi SSE 8.1 mph - N/A   Clear